Regional Weather Roundup
Issued by NWS

Home | Current Version | Previous Version | Text Only | Print | Product List | Glossary Off
Versions: 1 2 3 4 5 6 7 8 9 10 11 12 13 14 15 16 17 18 19 20 21 22 23 24 25 26 27 28 29 30 31 32 33 34 35 36 37 38 39 40 41 42 43 44 45 46 47 48 49 50

000
ASUS45 KCYS 201710
RWRWY

WYOMING REGIONAL WEATHER ROUNDUP
NATIONAL WEATHER SERVICE CHEYENNE WY
1000 AM MST SAT DEC 20 2014

NOTE:  "FAIR" INDICATES FEW OR NO CLOUDS BELOW 12,000 FEET
WITH NO SIGNIFICANT WEATHER AND/OR OBSTRUCTIONS TO VISIBILITY.

WYZ001-201800-
YELLOWSTONE NATIONAL PARK

CITY           SKY/WX    TMP DP  RH WIND       PRES   REMARKS
LK YELLOWSTONE   N/A     25  21  85 VRB3      29.99S
W YELLOWSTONE  NOT AVBL

$$
WYZ002>013-054>058-071-098>099-201800-
NORTHERN WYOMING

CITY           SKY/WX    TMP DP  RH WIND       PRES   REMARKS
JACKSON        SUNNY     28  27  93 CALM      30.00F
CODY           FAIR      36  21  55 SE10      29.92S WCI  28
GREYBULL       FAIR      16  13  88 CALM      29.99S
WORLAND        FAIR      12   7  80 CALM      29.98S
SHERIDAN       FAIR      32  22  66 S6        29.94S WCI  26
BUFFALO        FAIR      42  21  43 CALM      29.95R
GILLETTE       CLOUDY    35  27  72 CALM      29.95R
HULETT           N/A    N/A N/A N/A MISG        N/A
NEWCASTLE      FAIR      30  27  86 CALM      29.97R

$$
WYZ014>020-022>026-101>103-201800-
CENTRAL WYOMING

CITY           SKY/WX    TMP DP  RH WIND       PRES   REMARKS
BIG PINEY      CLOUDY    26  23  88 E5        30.04F WCI  20
PINEDALE       LGT SNOW  27  25  93 NW5       30.05S WCI  21
DUBOIS         NOT AVBL
LANDER         FAIR      13  10  88 E5        29.97S WCI   5
RIVERTON       FAIR      15  12  88 E3        29.98S
CASPER         FAIR      33  24  69 SW22G29   29.99R WCI  21
DOUGLAS        FAIR      39  25  57 NW10      29.98R WCI  32

$$
WYZ021-027>030-104>119-201800-
SOUTHERN WYOMING

CITY           SKY/WX    TMP DP  RH WIND       PRES   REMARKS
EVANSTON       CLOUDY    31  28  89 SW9       30.06F WCI  23
KEMMERER       CLOUDY    32  28  86 W8        30.05F WCI  25
FORT BRIDGER   CLOUDY    35  30  82 W13       30.09S WCI  26
ROCK SPRINGS   CLOUDY    31  24  75 SW14      30.06S WCI  21
DIXON          CLOUDY    31  24  73 SW5       30.14R WCI  27
RAWLINS        CLOUDY    30  22  72 SW9       30.05S WCI  22
SARATOGA       CLOUDY    32  23  69 S9        30.06F WCI  24
LARAMIE        CLOUDY    32  20  61 CALM      30.02R
CHEYENNE       FAIR      37  20  50 W9        30.01F WCI  30
TORRINGTON     FAIR     N/A N/A N/A W7        29.97S
PINE BLUFFS    FAIR      39  23  52 W14G20    30.01S WCI  31

$$



USA.gov is the U.S. government's official web portal to all federal, state and local government web resources and services.